Tracking 35331 objects as of 16-Sep-2026
HD Live streaming from Space Station
objects crossing your sky now

THORAD AGENA D DEB

Track THORAD AGENA D DEB now!
10-day predictions


NORAD ID: 5690
Int'l Code: 1970-025LV
Launch date: April 8, 1970
Source: United States (US)
Launch site: AIR FORCE WESTERN TEST RANGE (AFWTR)

Note: This is SATELLITE DEBRIS
Your satellite tracking list
Your tracking list is empty




NASA's NSSDC Master Catalog

Two Line Element Set (TLE):
1 05690U 70025LV  26258.32853194  .00000041  00000-0  13424-3 0  9994
2 05690 100.1913 276.0173 0048560 216.7259 212.3787 13.51641676778561
Source of the keplerian elements: AFSPC